Location: Newark
(42.9260°N, 89.3850°W)
Time: 21:14:18
(UTC+00:00)

STARLINK 1040 - Pass Details

Date: 12 December 2019
Orbit: 337 x 342 km, 53.0° (Epoch: 24 January)

Event Time Altitude Azimuth Distance (km) Brightness Sun altitude
Exits shadow 11:48:26 18° 219° (SW) 965 4.6 -16.0°
Drops below altitude 10° 11:50:18 10° 181° (S) 1,336 5.8 -15.6°
Sets 11:52:41 0° 162° (SSE) 2,172 7.2 -15.2°
